This demonstration page uses our WeatherBlox Daily Observations layout. Learn more.

Left ArrowRight Arrow

39.92423, -83.80882

Hourly Observations for January 28, 2017

Temp ( °F °C ) Dew Point ( °F °C ) Humidity (%) Winds ( mph kmh ) Pressure ( in mb ) Visibility ( mi km ) Precip ( " mm )
12:56 am 00:56 Windy with Snow Likely 27 -2.8 22 -5.6 81 81 W 21 33 29.87 1012 9 14.48406 0 0.0254
1:56 am 01:56 Windy with Snow Likely 26 -3.3 21 -6.1 81 81 W 21 33 29.87 1012 9 14.48406 0 0.0254
2:56 am 02:56 Cloudy 26 -3.3 21 -6.1 81 81 W 17 28 29.87 1011 10 16.0934 0 0.0254
3:56 am 03:56 Cloudy 27 -2.8 20 -6.7 75 75 WSW 10 17 29.86 1011 10 16.0934 0 0
4:56 am 04:56 Cloudy 27 -2.8 21 -6.1 78 78 WSW 15 24 29.85 1011 10 16.0934 0 0
5:56 am 05:56 Cloudy 26 -3.3 21 -6.1 81 81 WSW 18 30 29.84 1011 10 16.0934 0 0
6:25 am 06:25 Cloudy 27 -3 21 -6 80 80 WSW 18 30 29.85 1011 10 16.0934 0 0
6:56 am 06:56 Cloudy 26 -3.3 21 -6.1 81 81 WSW 18 30 29.84 1010 10 16.0934 0 0
7:56 am 07:56 Mostly Cloudy 25 -3.9 20 -6.7 81 81 SW 17 28 29.84 1011 10 16.0934 0 0
8:56 am 08:56 Partly Cloudy 27 -2.8 21 -6.1 78 78 SW 16 26 29.84 1011 10 16.0934 0 0
9:49 am 09:49 Cloudy 28 -2 21 -6 74 74 WSW 16 26 29.85 1011 10 16.0934 0 0
9:56 am 09:56 Cloudy 28 -2.2 22 -5.6 78 78 SW 17 28 29.83 1010 10 16.0934 0 0
10:56 am 10:56 Mostly Sunny 33 0.6 23 -5 66 66 WSW 16 26 29.81 1010 10 16.0934 0 0
11:56 am 11:56 Cloudy 34 1.1 24 -4.4 67 67 SW 15 24 29.8 1009 10 16.0934 0 0
12:35 pm 12:35 Cloudy 32 0 25 -4 75 75 SW 16 26 29.8 1009 10 16.0934 0 0
12:56 pm 12:56 Cloudy 32 0 25 -3.9 75 75 SW 15 24 29.78 1008 10 16.0934 0 0
1:56 pm 13:56 Cloudy 31 -0.6 25 -3.9 79 79 WSW 17 28 29.77 1008 10 16.0934 0 0
2:56 pm 14:56 Cloudy 30 -1.1 25 -3.9 82 82 W 17 28 29.78 1008 10 16.0934 0 0
3:35 pm 15:35 Cloudy 28 -2 25 -4 86 86 W 20 31 29.8 1009 10 16.0934 0 0
3:56 pm 15:56 Cloudy 28 -2.2 24 -4.4 85 85 W 21 33 29.79 1009 10 16.0934 0 0
4:56 pm 16:56 Cloudy 28 -2.2 24 -4.4 85 85 W 17 28 29.8 1009 10 16.0934 0 0.0254
5:56 pm 17:56 Cloudy 28 -2.2 24 -4.4 85 85 WSW 14 22 29.82 1010 9 14.48406 0 0
6:56 pm 18:56 Cloudy 29 -1.7 25 -3.9 85 85 WSW 12 19 29.83 1010 10 16.0934 0 0
7:15 pm 19:15 Cloudy 28 -2 25 -4 86 86 WSW 13 20 29.85 1011 10 16.0934 0 0
7:56 pm 19:56 Cloudy 29 -1.7 25 -3.9 85 85 WSW 12 19 29.83 1010 10 16.0934 0 0
8:56 pm 20:56 Cloudy 30 -1.1 25 -3.9 82 82 WSW 13 20 29.83 1010 10 16.0934 0 0
9:56 pm 21:56 Cloudy 30 -1.1 25 -3.9 82 82 WSW 12 19 29.83 1010 10 16.0934 0 0
10:56 pm 22:56 Cloudy 31 -0.6 25 -3.9 79 79 W 13 20 29.82 1010 10 16.0934 0 0
11:56 pm 23:56 Cloudy 31 -0.6 26 -3.3 82 82 W 13 20 29.81 1010 10 16.0934 0 0.0254

Powered by AerisWeather